Regional Weather Roundup
Issued by NWS

Home | Current Version | Previous Version | Text Only | Print | Product List | Glossary Off
Versions: 1 2 3 4 5 6 7 8 9 10 11 12 13 14 15 16 17 18 19 20 21 22 23 24 25 26 27 28 29 30 31 32 33 34 35 36 37 38 39 40 41 42 43 44 45 46 47 48 49 50

335
ASUS43 KFSD 061102
RWRSD

WEATHER ROUNDUP FOR SOUTH DAKOTA
NATIONAL WEATHER SERVICE SIOUX FALLS SD
500 AM CST SAT FEB 06 2016

NOTE: "FAIR" INDICATES FEW OR NO CLOUDS BELOW 12,000 FEET WITH NO
SIGNIFICANT WEATHER AND/OR OBSTRUCTIONS TO VISIBILITY.


SDZ001>005-009-010-012>017-061200-
NORTHWEST AND NORTH CENTRAL SOUTH DAKOTA

CITY           SKY/WX    TMP DP  RH WIND       PRES   REMARKS
BUFFALO          N/A     32  19  58 SW12      29.90F WCI  23
FAITH            N/A     30  18  60 SW13      29.98F WCI  20
MOBRIDGE       CLOUDY    27  21  78 SE7       29.95F WCI  19
$$

SDZ012>016-024>037-041>051-057-063-072>074-061200-
SOUTHWEST AND SOUTH CENTRAL SOUTH DAKOTA

CITY           SKY/WX    TMP DP  RH WIND       PRES   REMARKS
RAPID CTY ARPT CLOUDY    27  17  66 CALM      30.04F
PIERRE         CLEAR     29  22  75 SW15      30.03F WCI  18
CUSTER         CLOUDY    24   8  50 W7        30.05F WCI  16
ELLSWORTH AFB  CLOUDY    31  17  58 SW6       30.02F WCI  25
PHILIP         CLEAR     27  19  72 W9        30.07F WCI  18
PINE RIDGE     CLOUDY    27  14  58 W7        30.13F WCI  19
WINNER         FAIR      27  17  66 SW15      30.10S WCI  15
$$

SDZ004>011-016>023-039-040-061200-
NORTHEAST SOUTH DAKOTA

CITY           SKY/WX    TMP DP  RH WIND       PRES   REMARKS
ABERDEEN       CLEAR     24  19  81 S9        30.02F WCI  14
WATERTOWN      CLOUDY    19  15  84 S8        30.04F WCI   9
BROOKINGS      CLOUDY    16  14  92 S7        30.09F WCI   6
SISSETON         N/A     30  22  72 SW15      30.01S WCI  19
$$

SDZ017-020-022-023-036>040-048>070-061200-
SOUTHEAST SOUTH DAKOTA

CITY           SKY/WX    TMP DP  RH WIND       PRES   REMARKS
SIOUX FALLS    CLOUDY    21  19  92 SW5       30.14F WCI  15
HURON          CLEAR     22  19  89 S8        30.07F WCI  12
MITCHELL       CLEAR     25  21  85 SW13      30.12F WCI  14
YANKTON        PTCLDY    21  19  93 S5        30.16F WCI  15
$$

ABBREVIATIONS USED IN REMARKS
   TC - TEMPERATURE IN CELSIUS
  WCI - WIND CHILL INDEX
   HX - HEAT INDEX
  VSB - VISIBILITY





USA.gov is the U.S. government's official web portal to all federal, state and local government web resources and services.